Location: Newark
(45.5000°N, 11.4167°E)
Time: 03:40:42
(UTC+00:00)

N. Korean satellite - Visible Passes

Search period start: 14 October 2019 00:00
Search period end: 24 October 2019 00:00
Orbit: 455 x 508 km, 97.2° (Epoch: 13 October)

Date Brightness Start Highest point End Pass type
(mag) Time Alt. Az. Time Alt. Az. Time Alt. Az.
14 Oct 10.0 04:14:51 10° NE 04:17:02 15° E 04:19:14 10° SE visible
15 Oct 10.6 17:35:52 10° W 17:36:26 10° W 17:37:00 10° W visible
16 Oct 7.7 04:56:35 10° NNE 05:00:04 49° E 05:03:35 10° S visible
16 Oct 9.6 17:08:18 10° SW 17:10:55 20° W 17:13:34 10° NW visible
17 Oct 9.3 04:31:42 10° NE 04:34:41 24° E 04:37:41 10° SSE visible
18 Oct 10.2 04:07:31 10° ENE 04:09:12 13° E 04:10:55 10° ESE visible
19 Oct 10.2 17:26:55 10° WSW 17:28:33 13° W 17:30:10 10° WNW visible
20 Oct 8.2 04:48:50 10° NNE 04:52:15 39° E 04:55:43 10° S visible
20 Oct 9.2 17:00:10 10° SSW 17:03:02 25° W 17:05:58 10° NW visible
21 Oct 9.6 04:24:04 10° NE 04:26:50 20° E 04:29:38 10° SE visible
22 Oct 10.5 04:00:30 10° ENE 04:01:19 11° E 04:02:09 10° ESE visible
23 Oct 7.1 05:06:08 10° NNE 05:09:46 68° E 05:13:26 10° S visible
23 Oct 10.0 17:18:27 10° SW 17:20:37 16° W 17:22:50 10° NW visible
